TimePDT,TemperatureF,Dew PointF,Humidity,Sea Level PressureIn,VisibilityMPH,Wind Direction,Wind SpeedMPH,Gust SpeedMPH,PrecipitationIn,Events,Conditions,WindDirDegrees,DateUTC
12:53 AM,54.0,45.0,72,30.27,10.0,South,4.6,-,N/A,,Overcast,170,2013-05-31 07:53:00
1:53 AM,54.0,46.0,75,30.27,10.0,SE,5.8,-,N/A,,Overcast,140,2013-05-31 08:53:00
2:25 AM,53.6,46.4,77,30.28,10.0,South,6.9,-,N/A,,Overcast,180,2013-05-31 09:25:00
2:53 AM,54.0,46.9,77,30.28,10.0,SSE,5.8,-,N/A,,Overcast,160,2013-05-31 09:53:00
3:53 AM,54.0,46.9,77,30.29,10.0,SSE,5.8,-,N/A,,Overcast,160,2013-05-31 10:53:00
4:44 AM,53.6,46.4,77,30.29,10.0,Variable,3.5,-,N/A,,Overcast,0,2013-05-31 11:44:00
4:53 AM,54.0,46.0,75,30.30,10.0,Calm,Calm,-,N/A,,Overcast,0,2013-05-31 11:53:00
5:18 AM,53.6,46.4,77,30.30,10.0,SSE,3.5,-,N/A,,Overcast,160,2013-05-31 12:18:00
5:53 AM,54.0,46.0,75,30.31,10.0,SSW,5.8,-,N/A,,Overcast,200,2013-05-31 12:53:00
6:53 AM,54.0,46.0,75,30.32,10.0,Calm,Calm,-,N/A,,Mostly Cloudy,0,2013-05-31 13:53:00
7:53 AM,55.0,46.9,74,30.34,10.0,Calm,Calm,-,N/A,,Overcast,0,2013-05-31 14:53:00
8:53 AM,55.9,46.0,69,30.35,10.0,SW,4.6,-,N/A,,Mostly Cloudy,230,2013-05-31 15:53:00
9:53 AM,59.0,46.0,62,30.35,10.0,Variable,3.5,-,N/A,,Mostly Cloudy,0,2013-05-31 16:53:00
10:33 AM,59.0,44.6,59,30.35,10.0,Variable,4.6,-,N/A,,Mostly Cloudy,0,2013-05-31 17:33:00
10:53 AM,62.1,46.0,56,30.34,10.0,South,4.6,-,N/A,,Mostly Cloudy,170,2013-05-31 17:53:00
11:53 AM,62.1,44.1,52,30.34,10.0,Variable,3.5,-,N/A,,Mostly Cloudy,0,2013-05-31 18:53:00
12:53 PM,62.1,42.1,48,30.34,10.0,NNW,5.8,-,N/A,,Mostly Cloudy,340,2013-05-31 19:53:00
1:53 PM,66.0,44.1,45,30.32,10.0,Variable,4.6,-,N/A,,Mostly Cloudy,0,2013-05-31 20:53:00
2:53 PM,64.0,41.0,43,30.32,10.0,North,5.8,-,N/A,,Overcast,350,2013-05-31 21:53:00
3:53 PM,64.9,39.0,39,30.32,10.0,Variable,6.9,-,N/A,,Partly Cloudy,0,2013-05-31 22:53:00
4:53 PM,66.0,39.0,37,30.30,10.0,WNW,6.9,-,N/A,,Scattered Clouds,290,2013-05-31 23:53:00
5:53 PM,66.9,39.9,37,30.30,10.0,Variable,5.8,-,N/A,,Scattered Clouds,0,2013-06-01 00:53:00
6:53 PM,66.0,37.9,36,30.28,10.0,NW,3.5,-,N/A,,Scattered Clouds,320,2013-06-01 01:53:00
7:53 PM,64.9,39.0,39,30.27,10.0,WNW,5.8,-,N/A,,Clear,300,2013-06-01 02:53:00
8:53 PM,62.1,42.1,48,30.27,10.0,Variable,3.5,-,N/A,,Clear,0,2013-06-01 03:53:00
9:53 PM,61.0,42.1,50,30.27,10.0,Variable,3.5,-,N/A,,Clear,0,2013-06-01 04:53:00
10:53 PM,60.1,42.1,51,30.26,10.0,Calm,Calm,-,N/A,,Clear,0,2013-06-01 05:53:00
11:53 PM,59.0,43.0,55,30.26,10.0,Calm,Calm,-,N/A,,Clear,0,2013-06-01 06:53:00